EZY298K EGAC-EGKK

Flight info

Callsign EZY298K
Flight time N/A
Altitude 33000
Route DCT DUFFY L10 RINGA DCT BABGU DCT ETIGA DCT INKOB Q39 NOMSU UQ4 WAL L151 DISIT DISIT1G
Aircraft A319/M-SDE3FGHIRWY/LB1

Departure

Time 2026-04-30 14:11
Airport George Best Belfast City Airport (EGAC)

Arrival

Time N/A
Airport London Gatwick Airport (EGKK)
Time Latitude Longitude Altitude Speed Heading
2026-04-30 13:56 54.61493 -5.87141 15 ft 0 kts 156°
2026-04-30 14:06 54.61499 -5.87145 15 ft 2 kts 156°
2026-04-30 14:06 54.61520 -5.87161 15 ft 1 kts 156°
2026-04-30 14:07 54.61534 -5.87182 15 ft 0 kts 108°
2026-04-30 14:07 54.61534 -5.87183 15 ft 0 kts 107°
2026-04-30 14:07 54.61535 -5.87207 16 ft 2 kts 72°
2026-04-30 14:08 54.61527 -5.87228 16 ft 0 kts 37°
2026-04-30 14:08 54.61533 -5.87220 16 ft 4 kts 36°
2026-04-30 14:09 54.61687 -5.87033 15 ft 31 kts 36°
2026-04-30 14:09 54.61857 -5.87172 16 ft 31 kts 353°
2026-04-30 14:09 54.61893 -5.87149 16 ft 0 kts 58°
2026-04-30 14:10 54.61998 -5.86986 15 ft 32 kts 38°
2026-04-30 14:10 54.62257 -5.86721 17 ft 43 kts 37°
2026-04-30 14:10 54.62440 -5.86465 18 ft 16 kts
2026-04-30 14:10 54.62413 -5.86536 18 ft 26 kts 214°
2026-04-30 14:11 54.62008 -5.87017 16 ft 113 kts 214°
2026-04-30 14:11 54.61195 -5.88002 223 ft 161 kts 215°
2026-04-30 14:11 54.60262 -5.89162 809 ft 172 kts 214°
2026-04-30 14:11 54.59130 -5.89966 1376 ft 191 kts 184°
2026-04-30 14:12 54.57811 -5.89395 1959 ft 210 kts 151°
2026-04-30 14:12 54.56471 -5.88107 2563 ft 232 kts 154°
2026-04-30 14:12 54.54895 -5.87087 3125 ft 257 kts 165°
2026-04-30 14:12 54.53073 -5.86439 3688 ft 283 kts 170°
2026-04-30 14:13 54.51109 -5.85409 4228 ft 310 kts 149°
2026-04-30 14:13 54.49468 -5.82823 4640 ft 336 kts 126°
2026-04-30 14:13 54.48223 -5.79379 4746 ft 353 kts 119°
2026-04-30 14:13 54.46973 -5.75601 4746 ft 371 kts 120°
2026-04-30 14:14 54.45633 -5.71779 5269 ft 371 kts 120°
2026-04-30 14:14 54.44308 -5.68100 6415 ft 373 kts 123°
2026-04-30 14:14 54.42811 -5.64342 7094 ft 383 kts 124°
2026-04-30 14:14 54.41272 -5.60589 7772 ft 387 kts 125°
2026-04-30 14:15 54.39735 -5.56834 8444 ft 391 kts 124°
2026-04-30 14:15 54.38176 -5.53005 9121 ft 395 kts 124°
2026-04-30 14:15 54.36606 -5.49137 9799 ft 399 kts 124°
2026-04-30 14:15 54.35019 -5.45227 10477 ft 402 kts 124°
2026-04-30 14:16 54.33416 -5.41279 11156 ft 406 kts 124°
2026-04-30 14:16 54.31802 -5.37313 11833 ft 410 kts 124°
2026-04-30 14:16 54.30158 -5.33277 12515 ft 414 kts 125°
2026-04-30 14:16 54.28509 -5.29242 13190 ft 418 kts 126°
2026-04-30 14:17 54.27753 -5.27483 13489 ft 420 kts 127°
2026-04-30 14:17 54.25929 -5.23560 14169 ft 424 kts 129°
2026-04-30 14:17 54.24044 -5.19636 14851 ft 428 kts 129°
2026-04-30 14:17 54.22149 -5.15705 15529 ft 432 kts 129°
2026-04-30 14:18 54.20231 -5.11727 16208 ft 436 kts 129°
2026-04-30 14:18 54.18323 -5.07772 16880 ft 439 kts 129°
2026-04-30 14:18 54.14444 -4.99745 18234 ft 442 kts 129°
2026-04-30 14:19 54.10515 -4.91632 19597 ft 444 kts 129°
2026-04-30 14:19 54.08559 -4.87606 20273 ft 444 kts 129°
2026-04-30 14:19 54.06594 -4.83569 20951 ft 444 kts 129°
2026-04-30 14:20 54.04644 -4.79542 21627 ft 443 kts 128°
2026-04-30 14:20 54.02773 -4.75408 22305 ft 442 kts 127°
2026-04-30 14:20 53.99107 -4.67172 23656 ft 438 kts 127°
2026-04-30 14:21 53.97269 -4.63053 24337 ft 436 kts 127°
2026-04-30 14:21 53.95447 -4.58975 25017 ft 432 kts 127°
2026-04-30 14:21 53.91858 -4.50964 26367 ft 425 kts 127°
2026-04-30 14:22 53.90096 -4.47044 27040 ft 420 kts 127°
2026-04-30 14:22 53.86612 -4.39241 28395 ft 410 kts 124°
2026-04-30 14:22 53.85006 -4.35346 29066 ft 404 kts 124°
2026-04-30 14:23 53.81875 -4.27682 30416 ft 389 kts 125°
2026-04-30 14:23 53.78880 -4.20354 31758 ft 372 kts 125°
2026-04-30 14:24 53.75991 -4.13316 32683 ft 365 kts 125°
2026-04-30 14:24 53.74532 -4.09768 32744 ft 373 kts 125°
2026-04-30 14:25 53.71502 -4.02421 32755 ft 392 kts 125°
2026-04-30 14:25 53.68307 -3.94708 32755 ft 411 kts 125°
2026-04-30 14:26 53.64952 -3.86655 32756 ft 429 kts 125°
2026-04-30 14:26 53.63221 -3.82509 32755 ft 437 kts 125°
2026-04-30 14:26 53.59678 -3.74032 32755 ft 453 kts 125°
2026-04-30 14:27 53.57839 -3.69639 32755 ft 461 kts 125°
2026-04-30 14:27 53.54100 -3.60726 32754 ft 474 kts 125°
2026-04-30 14:28 53.48474 -3.47037 32753 ft 477 kts 121°
2026-04-30 14:28 53.45284 -3.37337 32754 ft 477 kts 115°
2026-04-30 14:29 53.39154 -3.17724 32754 ft 477 kts 127°
2026-04-30 14:30 53.32267 -3.05808 32754 ft 477 kts 142°
2026-04-30 14:31 53.26859 -2.99435 32754 ft 477 kts 146°
2026-04-30 14:31 53.18663 -2.90185 32754 ft 477 kts 146°
2026-04-30 14:32 53.10459 -2.80922 32754 ft 477 kts 146°
2026-04-30 14:33 53.04978 -2.74748 32754 ft 477 kts 146°
2026-04-30 14:33 52.96771 -2.65534 32754 ft 477 kts 146°
2026-04-30 14:34 52.91290 -2.59400 32754 ft 477 kts 146°
2026-04-30 14:34 52.85814 -2.53309 32753 ft 477 kts 146°
2026-04-30 14:35 52.77561 -2.44177 32753 ft 477 kts 146°
2026-04-30 14:36 52.72059 -2.38104 32753 ft 477 kts 146°
2026-04-30 14:36 52.66570 -2.32052 32753 ft 477 kts 146°
2026-04-30 14:37 52.61056 -2.25996 32754 ft 477 kts 147°
2026-04-30 14:37 52.55574 -2.20003 32754 ft 477 kts 146°
2026-04-30 14:38 52.50063 -2.13989 32754 ft 477 kts 146°
2026-04-30 14:38 52.44566 -2.08005 32754 ft 477 kts 146°
2026-04-30 14:39 52.39031 -2.02005 32754 ft 477 kts 146°
2026-04-30 14:39 52.33538 -1.96070 32753 ft 477 kts 147°
2026-04-30 14:40 52.25235 -1.87138 32754 ft 477 kts 147°
2026-04-30 14:40 52.19690 -1.81200 32754 ft 477 kts 147°
2026-04-30 14:41 52.14191 -1.75317 32754 ft 477 kts 146°
2026-04-30 14:41 52.08657 -1.69420 32754 ft 477 kts 147°
2026-04-30 14:42 52.03102 -1.63533 32754 ft 477 kts 147°
2026-04-30 14:42 51.97568 -1.57676 32754 ft 477 kts 147°
2026-04-30 14:43 51.92043 -1.51838 32754 ft 477 kts 146°
2026-04-30 14:43 51.86482 -1.45989 32753 ft 477 kts 147°
2026-04-30 14:44 51.80968 -1.40212 32752 ft 468 kts 147°
2026-04-30 14:44 51.75474 -1.34468 32714 ft 476 kts 147°
2026-04-30 14:45 51.72693 -1.31568 32044 ft 476 kts 147°
2026-04-30 14:45 51.69954 -1.28711 31298 ft 473 kts 147°
2026-04-30 14:45 51.67208 -1.25849 30543 ft 469 kts 147°
2026-04-30 14:45 51.64510 -1.23041 29795 ft 464 kts 147°
2026-04-30 14:46 51.61817 -1.20243 29042 ft 460 kts 147°
2026-04-30 14:46 51.59130 -1.17456 28284 ft 456 kts 147°
2026-04-30 14:46 51.56501 -1.14732 27537 ft 453 kts 147°
2026-04-30 14:46 51.53882 -1.12024 26786 ft 450 kts 147°
2026-04-30 14:47 51.51255 -1.09310 26030 ft 447 kts 147°
2026-04-30 14:47 51.48674 -1.06649 25247 ft 445 kts 147°
2026-04-30 14:47 51.46090 -1.03987 24446 ft 443 kts 147°
2026-04-30 14:47 51.43506 -1.01330 23641 ft 441 kts 147°
2026-04-30 14:48 51.40930 -0.98683 22835 ft 439 kts 147°
2026-04-30 14:48 51.38399 -0.96087 22039 ft 436 kts 147°
2026-04-30 14:48 51.35848 -0.93474 21232 ft 434 kts 147°
2026-04-30 14:48 51.33345 -0.90913 20437 ft 431 kts 147°
2026-04-30 14:49 51.30823 -0.88336 19630 ft 428 kts 147°
2026-04-30 14:49 51.28323 -0.85784 18825 ft 426 kts 147°
2026-04-30 14:49 51.25841 -0.83255 18022 ft 423 kts 147°
2026-04-30 14:49 51.23412 -0.80781 17230 ft 420 kts 147°
2026-04-30 14:50 51.18543 -0.75830 15625 ft 414 kts 147°
2026-04-30 14:50 51.16144 -0.73395 14826 ft 410 kts 147°
2026-04-30 14:51 51.11363 -0.68551 13215 ft 404 kts 147°
2026-04-30 14:51 51.09029 -0.66195 12363 ft 402 kts 147°
2026-04-30 14:51 51.04895 -0.60698 10595 ft 370 kts 125°
2026-04-30 14:52 51.03661 -0.57287 9736 ft 362 kts 116°
2026-04-30 14:52 51.01464 -0.50068 7981 ft 368 kts 115°
2026-04-30 14:52 51.00343 -0.46429 7173 ft 367 kts 116°
2026-04-30 14:53 50.98111 -0.39190 5582 ft 363 kts 111°
2026-04-30 14:53 50.97628 -0.35441 5041 ft 333 kts 89°